,,Stat6,,Stat2,,Stat8,,Stat9,,Stat10,,Wind1,,Wind1,
time,status,PA1M_AVG,status,PR1M_SUM,status,RH1M_AVG,status,SR1M_AVG,status,TA1M_AVG,status,W1dAve1m,status,W1sAve1m,
2005-04-07, 00:00:00,VALID,918.963,VALID,0,VALID,98.7604,VALID,-0.0169808,VALID,21.9605,VALID,127,VALID,0,
2005-04-07, 00:01:00,VALID,918.953,VALID,0,VALID,98.7655,VALID,-0.0169808,VALID,21.9799,VALID,127,VALID,0,
2005-04-07, 00:02:00,VALID,918.971,VALID,0,VALID,98.6663,VALID,0,VALID,21.9867,VALID,127,VALID,0,
2005-04-07, 00:03:00,VALID,918.955,VALID,0,VALID,98.6358,VALID,-0.0169808,VALID,21.9834,VALID,127,VALID,0,
2005-04-07, 00:04:00,VALID,918.946,VALID,0,VALID,98.6943,VALID,-0.0849042,VALID,21.9802,VALID,127,VALID,0,
2005-04-07, 00:05:00,VALID,918.928,VALID,0,VALID,98.6511,VALID,-0.0509425,VALID,21.9702,VALID,127,VALID,0,
2005-04-07, 00:06:00,VALID,918.891,VALID,0,VALID,98.6994,VALID,-0.0339617,VALID,21.9705,VALID,127,VALID,0,
2005-04-07, 00:07:00,VALID,918.867,VALID,0,VALID,98.6994,VALID,-0.0679233,VALID,21.9579,VALID,127,VALID,0,
2005-04-07, 00:08:00,VALID,918.867,VALID,0,VALID,98.7325,VALID,-0.0339617,VALID,21.9379,VALID,127,VALID,0.229861,
2005-04-07, 00:09:00,VALID,918.865,VALID,0,VALID,98.7528,VALID,-0.0169808,VALID,21.9484,VALID,127,VALID,0.0677689,
2005-04-07, 00:10:00,VALID,918.873,VALID,0,VALID,98.7617,VALID,-0.0509425,VALID,21.9449,VALID,127,VALID,0.0583212,
2005-04-07, 00:11:00,VALID,918.869,VALID,0,VALID,98.7604,VALID,-0.0169808,VALID,21.925,VALID,127,VALID,0.0987723,
2005-04-07, 00:12:00,VALID,918.862,VALID,0,VALID,98.8011,VALID,-0.0509425,VALID,21.935,VALID,127,VALID,0.112847,
2005-04-07, 00:13:00,VALID,918.854,VALID,0,VALID,98.7312,VALID,-0.0509425,VALID,21.9352,VALID,127,VALID,0.0321801,
2005-04-07, 00:14:00,VALID,918.852,VALID,0,VALID,98.7108,VALID,-0.101885,VALID,21.9097,VALID,127,VALID,0.156068,
2005-04-07, 00:15:00,VALID,918.876,VALID,0,VALID,98.5773,VALID,-0.0679233,VALID,21.8903,VALID,127,VALID,0.205929,
2005-04-07, 00:16:00,VALID,918.904,VALID,0,VALID,98.5544,VALID,-0.0509425,VALID,21.8615,VALID,127,VALID,0.359375,
2005-04-07, 00:17:00,VALID,918.911,VALID,0,VALID,98.7452,VALID,-0.0509425,VALID,21.8251,VALID,127,VALID,0.232376,
2005-04-07, 00:18:00,VALID,918.911,VALID,0,VALID,98.8062,VALID,-0.0509425,VALID,21.8289,VALID,127,VALID,0.137074,
2005-04-07, 00:19:00,VALID,918.892,VALID,0,VALID,98.7325,VALID,-0.0849042,VALID,21.8095,VALID,127,VALID,0.373547,
2005-04-07, 00:20:00,VALID,918.876,VALID,0,VALID,98.7045,VALID,-0.0509425,VALID,21.7735,VALID,127,VALID,0.212754,
2005-04-07, 00:21:00,VALID,918.857,VALID,0,VALID,98.6638,VALID,-0.0679233,VALID,21.774,VALID,127,VALID,0.353125,
2005-04-07, 00:22:00,VALID,918.851,VALID,0,VALID,98.5786,VALID,-0.0169808,VALID,21.7409,VALID,128,VALID,0.446671,
2005-04-07, 00:23:00,VALID,918.848,VALID,0,VALID,98.66,VALID,-0.0509425,VALID,21.7315,VALID,129,VALID,0.291548,
2005-04-07, 00:24:00,VALID,918.871,VALID,0,VALID,98.7045,VALID,-0.0339617,VALID,21.732,VALID,129,VALID,0.108613,
2005-04-07, 00:25:00,VALID,918.878,VALID,0,VALID,98.7986,VALID,-0.0339617,VALID,21.722,VALID,129,VALID,0.0025436,
2005-04-07, 00:26:00,VALID,918.898,VALID,0,VALID,98.9245,VALID,-0.0849042,VALID,21.7288,VALID,129,VALID,0,
2005-04-07, 00:27:00,VALID,918.883,VALID,0,VALID,98.9741,VALID,-0.0849042,VALID,21.7675,VALID,129,VALID,0,
2005-04-07, 00:28:00,VALID,918.874,VALID,0,VALID,98.8444,VALID,-0.0679233,VALID,21.764,VALID,129,VALID,0.00319602,
2005-04-07, 00:29:00,VALID,918.871,VALID,0,VALID,98.777,VALID,-0.0509425,VALID,21.7643,VALID,129,VALID,0.0228924,
2005-04-07, 00:30:00,VALID,918.852,VALID,0,VALID,98.8304,VALID,-0.0169808,VALID,21.7476,VALID,129,VALID,0.136446,
2005-04-07, 00:31:00,VALID,918.834,VALID,0,VALID,98.8227,VALID,-0.0169808,VALID,21.7379,VALID,129,VALID,0,
2005-04-07, 00:32:00,VALID,918.821,VALID,0,VALID,98.8253,VALID,-0.0339617,VALID,21.7414,VALID,129,VALID,0,
2005-04-07, 00:33:00,VALID,918.807,VALID,0,VALID,98.8965,VALID,-0.0849042,VALID,21.7317,VALID,129,VALID,0.00090843,
2005-04-07, 00:34:00,VALID,918.804,VALID,0,VALID,98.9474,VALID,-0.0509425,VALID,21.7414,VALID,129,VALID,0.12282,
2005-04-07, 00:35:00,VALID,918.782,VALID,0,VALID,98.9143,VALID,-0.0339617,VALID,21.7455,VALID,129,VALID,0.0131944,
2005-04-07, 00:36:00,VALID,918.784,VALID,0,VALID,98.9804,VALID,-0.0679233,VALID,21.7584,VALID,129,VALID,0.185595,
2005-04-07, 00:37:00,VALID,918.799,VALID,0,VALID,98.9842,VALID,-0.0339617,VALID,21.7514,VALID,129,VALID,0.166109,
2005-04-07, 00:38:00,VALID,918.811,VALID,0,VALID,98.9995,VALID,-0.0339617,VALID,21.7385,VALID,129,VALID,0.000585938,
2005-04-07, 00:39:00,VALID,918.803,VALID,0,VALID,98.9868,VALID,-0.0509425,VALID,21.7285,VALID,129,VALID,0.0699574,
2005-04-07, 00:40:00,VALID,918.794,VALID,0,VALID,99.0071,VALID,-0.0509425,VALID,21.732,VALID,129,VALID,0.121603,
2005-04-07, 00:41:00,VALID,918.766,VALID,0,VALID,99.1902,VALID,-0.0169808,VALID,21.7344,VALID,129,VALID,0.291061,
2005-04-07, 00:42:00,VALID,918.726,VALID,0,VALID,99.236,VALID,-0.0849042,VALID,21.7487,VALID,129,VALID,0.225291,
2005-04-07, 00:43:00,VALID,918.705,VALID,0,VALID,99.2106,VALID,-0.0509425,VALID,21.7455,VALID,129,VALID,0.318859,
2005-04-07, 00:44:00,VALID,918.654,VALID,0,VALID,99.1508,VALID,-0.0509425,VALID,21.729,VALID,129,VALID,0.342076,
2005-04-07, 00:45:00,VALID,918.641,VALID,0,VALID,99.1521,VALID,-0.0339617,VALID,21.7,VALID,129,VALID,0.336119,
2005-04-07, 00:46:00,VALID,918.619,VALID,0,VALID,99.2398,VALID,-0.0339617,VALID,21.7,VALID,129,VALID,0.34375,
2005-04-07, 00:47:00,VALID,918.615,VALID,0,VALID,99.3276,VALID,-0.0339617,VALID,21.6906,VALID,129,VALID,0.268532,
2005-04-07, 00:48:00,VALID,918.591,VALID,0,VALID,99.3695,VALID,-0.0509425,VALID,21.6803,VALID,129,VALID,0.176781,
2005-04-07, 00:49:00,VALID,918.572,VALID,0,VALID,99.3123,VALID,-0.0679233,VALID,21.68,VALID,129,VALID,0.358103,
2005-04-07, 00:50:00,VALID,918.564,VALID,0,VALID,99.3136,VALID,-0.0339617,VALID,21.6706,VALID,130,VALID,0.464748,
2005-04-07, 00:51:00,VALID,918.558,VALID,0,VALID,99.3174,VALID,-0.0679233,VALID,21.6776,VALID,136,VALID,0.504092,
2005-04-07, 00:52:00,VALID,918.552,VALID,0,VALID,99.4001,VALID,-0.0679233,VALID,21.6838,VALID,138,VALID,0.461293,
2005-04-07, 00:53:00,VALID,918.544,VALID,0,VALID,99.4713,VALID,-0.0509425,VALID,21.6806,VALID,140,VALID,0.169922,
2005-04-07, 00:54:00,VALID,918.545,VALID,0,VALID,99.5221,VALID,-0.0849042,VALID,21.6838,VALID,140,VALID,0.0158026,
2005-04-07, 00:55:00,VALID,918.534,VALID,0,VALID,99.5755,VALID,-0.0849042,VALID,21.6965,VALID,141,VALID,0.0372456,
2005-04-07, 00:56:00,VALID,918.534,VALID,0,VALID,99.6188,VALID,-0.0679233,VALID,21.7097,VALID,168,VALID,0.192472,
2005-04-07, 00:57:00,VALID,918.544,VALID,0,VALID,99.6328,VALID,-0.0679233,VALID,21.7199,VALID,169,VALID,0.12642,
2005-04-07, 00:58:00,VALID,918.562,VALID,0,VALID,99.573,VALID,-0.0679233,VALID,21.7161,VALID,169,VALID,0.00167411,
2005-04-07, 00:59:00,VALID,918.579,VALID,0,VALID,99.5984,VALID,-0.0509425,VALID,21.7326,VALID,169,VALID,0.0256177,
2005-04-07, 01:00:00,VALID,918.586,VALID,0,VALID,99.6468,VALID,-0.0679233,VALID,21.7352,VALID,169,VALID,0.10394,
2005-04-07, 01:01:00,VALID,918.579,VALID,0,VALID,99.6747,VALID,-0.0339617,VALID,21.7482,VALID,169,VALID,0.135538,
2005-04-07, 01:02:00,VALID,918.576,VALID,0,VALID,99.7002,VALID,-0.0339617,VALID,21.7508,VALID,169,VALID,0.00239158,
2005-04-07, 01:03:00,VALID,918.557,VALID,0,VALID,99.718,VALID,-0.0849042,VALID,21.7805,VALID,169,VALID,0.0120046,
2005-04-07, 01:04:00,VALID,918.555,VALID,0,VALID,99.6658,VALID,-0.0509425,VALID,21.7802,VALID,169,VALID,0.0284455,
2005-04-07, 01:05:00,VALID,918.562,VALID,0,VALID,99.6849,VALID,-0.0849042,VALID,21.7904,VALID,169,VALID,0.104288,
2005-04-07, 01:06:00,VALID,918.569,VALID,0,VALID,99.7815,VALID,-0.0339617,VALID,21.8098,VALID,169,VALID,0.0944602,
2005-04-07, 01:07:00,VALID,918.574,VALID,0,VALID,99.8438,VALID,-0.0849042,VALID,21.8125,VALID,169,VALID,0.243521,
2005-04-07, 01:08:00,VALID,918.575,VALID,0,VALID,99.8667,VALID,-0.0679233,VALID,21.8192,VALID,169,VALID,0.200267,
2005-04-07, 01:09:00,VALID,918.548,VALID,0,VALID,99.8553,VALID,-0.0339617,VALID,21.8225,VALID,169,VALID,0.0301067,
2005-04-07, 01:10:00,VALID,918.524,VALID,0,VALID,99.8451,VALID,-0.0509425,VALID,21.8195,VALID,169,VALID,0.318638,
2005-04-07, 01:11:00,VALID,918.508,VALID,0,VALID,99.8782,VALID,-0.0339617,VALID,21.8069,VALID,168,VALID,0.399182,
2005-04-07, 01:12:00,VALID,918.503,VALID,0,VALID,99.9316,VALID,-0.0849042,VALID,21.8101,VALID,169,VALID,0.216704,
2005-04-07, 01:13:00,VALID,918.506,VALID,0,VALID,99.9265,VALID,-0.0339617,VALID,21.7998,VALID,169,VALID,0.129297,
2005-04-07, 01:14:00,VALID,918.52,VALID,0,VALID,99.9557,VALID,-0.0509425,VALID,21.8069,VALID,169,VALID,0.00109012,
2005-04-07, 01:15:00,VALID,918.533,VALID,0,VALID,99.9695,VALID,-0.0849042,VALID,21.7969,VALID,169,VALID,0.0111607,
2005-04-07, 01:16:00,VALID,918.525,VALID,0,VALID,99.9883,VALID,-0.0509425,VALID,21.8036,VALID,169,VALID,0.035061,
2005-04-07, 01:17:01,VALID,918.507,VALID,0,VALID,99.9593,VALID,-0.0339617,VALID,21.7969,VALID,166,VALID,0.186133,
2005-04-07, 01:18:01,VALID,918.49,VALID,0,VALID,99.868,VALID,-0.0339617,VALID,21.7875,VALID,152,VALID,0.46317,
2005-04-07, 01:19:00,VALID,918.481,VALID,0,VALID,99.8349,VALID,-0.0339617,VALID,21.7772,VALID,130,VALID,0.567522,
2005-04-07, 01:20:00,VALID,918.463,VALID,0,VALID,99.8527,VALID,0.0509425,VALID,21.7495,VALID,123,VALID,0.24628,
2005-04-07, 01:21:00,VALID,918.46,VALID,0,VALID,99.8349,VALID,0.0849042,VALID,21.7471,VALID,118,VALID,0.463914,
2005-04-07, 01:22:00,VALID,918.449,VALID,0,VALID,99.8197,VALID,0.0169808,VALID,21.7231,VALID,118,VALID,0.330729,
2005-04-07, 01:23:00,VALID,918.42,VALID,0,VALID,99.793,VALID,0.0509425,VALID,21.6981,VALID,118,VALID,0.451265,
2005-04-07, 01:24:00,VALID,918.403,VALID,0,VALID,99.8171,VALID,0.0509425,VALID,21.6849,VALID,113,VALID,0.656432,
2005-04-07, 01:25:00,VALID,918.389,VALID,0,VALID,99.8095,VALID,0.0849042,VALID,21.6655,VALID,100,VALID,0.598028,
2005-04-07, 01:26:00,VALID,918.38,VALID,0,VALID,99.821,VALID,0.0679233,VALID,21.6601,VALID,98,VALID,0.401344,
2005-04-07, 01:27:00,VALID,918.38,VALID,0,VALID,99.8171,VALID,0,VALID,21.6434,VALID,96,VALID,0.501065,
2005-04-07, 01:28:00,VALID,918.39,VALID,0,VALID,99.7103,VALID,0.0339617,VALID,21.6302,VALID,96,VALID,0.328635,
2005-04-07, 01:29:01,VALID,918.388,VALID,0,VALID,99.7065,VALID,0.0509425,VALID,21.6082,VALID,96,VALID,0.459517,
2005-04-07, 01:30:00,VALID,918.364,VALID,0,VALID,99.7294,VALID,0.0169808,VALID,21.592,VALID,96,VALID,0.58505,
2005-04-07, 01:31:00,VALID,918.36,VALID,0,VALID,99.7955,VALID,0.0169808,VALID,21.5821,VALID,86,VALID,0.651953,
2005-04-07, 01:32:00,VALID,918.351,VALID,0,VALID,99.8159,VALID,0.0509425,VALID,21.5788,VALID,70,VALID,0.543945,
2005-04-07, 01:33:01,VALID,918.336,VALID,0,VALID,99.8337,VALID,0.0169808,VALID,21.5627,VALID,68,VALID,0.546693,
2005-04-07, 01:34:00,VALID,918.337,VALID,0,VALID,99.84,VALID,-0.0339617,VALID,21.5761,VALID,68,VALID,0.286133,
2005-04-07, 01:35:00,VALID,918.323,VALID,0,VALID,99.8273,VALID,-0.0169808,VALID,21.5705,VALID,76,VALID,0.511052,
2005-04-07, 01:36:01,VALID,918.315,VALID,0,VALID,99.8235,VALID,-0.0339617,VALID,21.5573,VALID,79,VALID,0.381177,
2005-04-07, 01:37:00,VALID,918.299,VALID,0,VALID,99.84,VALID,-0.0509425,VALID,21.5511,VALID,80,VALID,0.415451,
2005-04-07, 01:38:01,VALID,918.267,VALID,0,VALID,99.8464,VALID,0,VALID,21.5511,VALID,81,VALID,0.533249,
2005-04-07, 01:39:00,VALID,918.249,VALID,0,VALID,99.8566,VALID,-0.0169808,VALID,21.5648,VALID,81,VALID,0.418146,
2005-04-07, 01:40:00,VALID,918.254,VALID,0,VALID,99.8171,VALID,-0.0169808,VALID,21.5576,VALID,81,VALID,0.323289,
2005-04-07, 01:41:00,VALID,918.242,VALID,0,VALID,99.7993,VALID,-0.0169808,VALID,21.5541,VALID,81,VALID,0.234012,
2005-04-07, 01:42:00,VALID,918.249,VALID,0,VALID,99.7714,VALID,-0.0169808,VALID,21.5578,VALID,81,VALID,0.347098,
2005-04-07, 01:43:00,VALID,918.244,VALID,0,VALID,99.7968,VALID,0,VALID,21.5643,VALID,100,VALID,0.34375,
2005-04-07, 01:44:00,VALID,918.233,VALID,0,VALID,99.7625,VALID,-0.0169808,VALID,21.5543,VALID,103,VALID,0.262277,
2005-04-07, 01:45:00,VALID,918.234,VALID,0,VALID,99.6874,VALID,0,VALID,21.5611,VALID,105,VALID,0.434152,
2005-04-07, 01:46:00,VALID,918.239,VALID,0,VALID,99.5997,VALID,-0.0169808,VALID,21.5546,VALID,110,VALID,0.463542,
2005-04-07, 01:47:00,VALID,918.24,VALID,0,VALID,99.5552,VALID,0,VALID,21.5282,VALID,121,VALID,0.853871,
2005-04-07, 01:48:00,VALID,918.228,VALID,0,VALID,99.6315,VALID,-0.0169808,VALID,21.522,VALID,131,VALID,0.789063,
2005-04-07, 01:49:00,VALID,918.23,VALID,0,VALID,99.7065,VALID,-0.0169808,VALID,21.5226,VALID,136,VALID,0.825462,
2005-04-07, 01:50:01,VALID,918.212,VALID,0,VALID,99.737,VALID,0,VALID,21.5097,VALID,138,VALID,0.665334,
2005-04-07, 01:51:00,VALID,918.193,VALID,0,VALID,99.793,VALID,-0.0169808,VALID,21.4927,VALID,127,VALID,0.651042,
2005-04-07, 01:52:01,VALID,918.164,VALID,0,VALID,99.854,VALID,-0.0339617,VALID,21.4903,VALID,135,VALID,0.722284,
2005-04-07, 01:53:01,VALID,918.152,VALID,0,VALID,99.9074,VALID,-0.0169808,VALID,21.4903,VALID,130,VALID,0.374818,
2005-04-07, 01:54:00,VALID,918.135,VALID,0,VALID,99.9481,VALID,-0.0509425,VALID,21.5035,VALID,150,VALID,0.27753,
2005-04-07, 01:55:00,VALID,918.129,VALID,0,VALID,99.9659,VALID,-0.0339617,VALID,21.4897,VALID,147,VALID,0.378374,
2005-04-07, 01:56:00,VALID,918.102,VALID,0,VALID,99.9835,VALID,-0.0169808,VALID,21.4736,VALID,136,VALID,0.390104,
2005-04-07, 01:57:01,VALID,918.075,VALID,0,VALID,99.9967,VALID,-0.0169808,VALID,21.4771,VALID,127,VALID,0.605729,
2005-04-07, 01:58:00,VALID,918.059,VALID,0,VALID,100,VALID,-0.0339617,VALID,21.4744,VALID,128,VALID,0.420541,
2005-04-07, 01:59:00,VALID,918.049,VALID,0,VALID,99.9941,VALID,-0.0339617,VALID,21.448,VALID,116,VALID,0.271587,
2005-04-07, 02:00:01,VALID,918.05,VALID,0,VALID,100,VALID,-0.0679233,VALID,21.4284,VALID,122,VALID,0.645712,
2005-04-07, 02:01:00,VALID,918.061,VALID,0,VALID,100,VALID,-0.0679233,VALID,21.4216,VALID,132,VALID,0.604469,
2005-04-07, 02:02:00,VALID,918.082,VALID,0,VALID,100,VALID,0,VALID,21.4152,VALID,131,VALID,0.225291,
2005-04-07, 02:03:01,VALID,918.075,VALID,0,VALID,100,VALID,-0.0339617,VALID,21.4227,VALID,132,VALID,0.406783,
2005-04-07, 02:04:00,VALID,918.065,VALID,0,VALID,100,VALID,-0.0169808,VALID,21.4125,VALID,126,VALID,0.648801,
2005-04-07, 02:05:00,VALID,918.043,VALID,0,VALID,99.999,VALID,0,VALID,21.3931,VALID,145,VALID,0.53559,
2005-04-07, 02:06:00,VALID,918.04,VALID,0,VALID,99.9746,VALID,-0.0339617,VALID,21.3864,VALID,138,VALID,0.298651,
2005-04-07, 02:07:00,VALID,918.019,VALID,0,VALID,99.8922,VALID,0,VALID,21.3861,VALID,133,VALID,0.245593,
2005-04-07, 02:08:00,VALID,918.02,VALID,0,VALID,99.8146,VALID,-0.0169808,VALID,21.3928,VALID,127,VALID,0.324128,
2005-04-07, 02:09:00,VALID,918.022,VALID,0,VALID,99.6874,VALID,0,VALID,21.3966,VALID,122,VALID,0.509629,
2005-04-07, 02:10:00,VALID,918.042,VALID,0,VALID,99.5501,VALID,-0.0169808,VALID,21.3864,VALID,133,VALID,0.683239,
2005-04-07, 02:11:01,VALID,918.036,VALID,0,VALID,99.498,VALID,-0.0339617,VALID,21.4001,VALID,130,VALID,0.283288,
2005-04-07, 02:12:00,VALID,918.023,VALID,0,VALID,99.4318,VALID,-0.0339617,VALID,21.3966,VALID,130,VALID,0.511328,
2005-04-07, 02:13:00,VALID,918.012,VALID,0,VALID,99.381,VALID,-0.0169808,VALID,21.3934,VALID,130,VALID,0.287919,
2005-04-07, 02:14:00,VALID,917.979,VALID,0,VALID,99.2525,VALID,-0.0169808,VALID,21.3996,VALID,112,VALID,0.588481,
2005-04-07, 02:15:00,VALID,917.961,VALID,0,VALID,99.1394,VALID,-0.0339617,VALID,21.3936,VALID,92,VALID,0.550495,
2005-04-07, 02:16:00,VALID,917.943,VALID,0,VALID,99.0046,VALID,-0.0509425,VALID,21.377,VALID,106,VALID,0.588778,
2005-04-07, 02:17:01,VALID,917.933,VALID,0,VALID,98.8914,VALID,-0.0169808,VALID,21.3675,VALID,102,VALID,0.504179,
2005-04-07, 02:18:00,VALID,917.918,VALID,0,VALID,98.894,VALID,-0.0339617,VALID,21.3581,VALID,107,VALID,0.62593,
2005-04-07, 02:19:00,VALID,917.931,VALID,0,VALID,98.9397,VALID,-0.0169808,VALID,21.3417,VALID,116,VALID,0.638529,
2005-04-07, 02:20:00,VALID,917.946,VALID,0,VALID,98.9703,VALID,-0.0169808,VALID,21.3382,VALID,131,VALID,0.596475,
2005-04-07, 02:21:01,VALID,917.953,VALID,0,VALID,98.9308,VALID,-0.0339617,VALID,21.335,VALID,142,VALID,0.51734,
2005-04-07, 02:22:00,VALID,917.954,VALID,0,VALID,98.894,VALID,0,VALID,21.3382,VALID,151,VALID,0.658594,
2005-04-07, 02:23:00,VALID,917.927,VALID,0,VALID,98.9308,VALID,0,VALID,21.335,VALID,151,VALID,0.716463,
2005-04-07, 02:24:00,VALID,917.885,VALID,0,VALID,98.9652,VALID,-0.0509425,VALID,21.3317,VALID,143,VALID,0.66183,
2005-04-07, 02:25:00,VALID,917.866,VALID,0,VALID,99.0211,VALID,-0.0339617,VALID,21.3484,VALID,133,VALID,0.823038,
2005-04-07, 02:26:00,VALID,917.858,VALID,0,VALID,99.0249,VALID,0,VALID,21.3247,VALID,145,VALID,0.772693,
2005-04-07, 02:27:00,VALID,917.848,VALID,0,VALID,99.1292,VALID,0,VALID,21.3282,VALID,151,VALID,0.743576,
2005-04-07, 02:28:00,VALID,917.845,VALID,0,VALID,99.2055,VALID,-0.0169808,VALID,21.3223,VALID,145,VALID,0.697731,
2005-04-07, 02:29:00,VALID,917.856,VALID,0,VALID,99.3352,VALID,-0.0339617,VALID,21.3323,VALID,145,VALID,0.909028,
2005-04-07, 02:30:00,VALID,917.85,VALID,0,VALID,99.4001,VALID,-0.0679233,VALID,21.3056,VALID,150,VALID,0.567969,
2005-04-07, 02:31:00,VALID,917.855,VALID,0,VALID,99.4547,VALID,-0.0169808,VALID,21.3124,VALID,158,VALID,0.959847,
2005-04-07, 02:32:00,VALID,917.858,VALID,0,VALID,99.5323,VALID,-0.0509425,VALID,21.2997,VALID,139,VALID,0.77096,
2005-04-07, 02:33:00,VALID,917.823,VALID,0,VALID,99.587,VALID,-0.0339617,VALID,21.3129,VALID,137,VALID,0.444141,
2005-04-07, 02:34:01,VALID,917.778,VALID,0,VALID,99.5348,VALID,-0.0169808,VALID,21.2836,VALID,135,VALID,0.901928,
2005-04-07, 02:35:00,VALID,917.748,VALID,0,VALID,99.5234,VALID,-0.0169808,VALID,21.2768,VALID,126,VALID,0.895008,
2005-04-07, 02:36:01,VALID,917.723,VALID,0,VALID,99.5437,VALID,-0.0339617,VALID,21.2846,VALID,111,VALID,0.783854,
2005-04-07, 02:37:00,VALID,917.7,VALID,0,VALID,99.4878,VALID,-0.0339617,VALID,21.2513,VALID,107,VALID,0.731771,
2005-04-07, 02:38:00,VALID,917.699,VALID,0,VALID,99.3784,VALID,-0.0339617,VALID,21.219,VALID,106,VALID,0.886628,
2005-04-07, 02:39:01,VALID,917.702,VALID,0,VALID,99.1826,VALID,-0.0509425,VALID,21.1834,VALID,111,VALID,0.807413,
2005-04-07, 02:40:01,VALID,917.719,VALID,0,VALID,99.0834,VALID,-0.0509425,VALID,21.1805,VALID,127,VALID,0.577943,
2005-04-07, 02:41:00,VALID,917.717,VALID,0,VALID,98.8762,VALID,-0.0849042,VALID,21.1673,VALID,123,VALID,0.794336,
2005-04-07, 02:42:00,VALID,917.722,VALID,0,VALID,98.7261,VALID,-0.0339617,VALID,21.1869,VALID,94,VALID,0.333097,
2005-04-07, 02:43:01,VALID,917.702,VALID,0,VALID,98.6104,VALID,-0.0849042,VALID,21.2001,VALID,100,VALID,0.25,
2005-04-07, 02:44:00,VALID,917.669,VALID,0,VALID,98.4095,VALID,-0.101885,VALID,21.2068,VALID,109,VALID,0.639737,
2005-04-07, 02:45:00,VALID,917.625,VALID,0,VALID,98.0801,VALID,-0.0849042,VALID,21.2031,VALID,111,VALID,1.16602,
2005-04-07, 02:46:01,VALID,917.592,VALID,0,VALID,97.9975,VALID,-0.0509425,VALID,21.213,VALID,80,VALID,0.549592,
2005-04-07, 02:47:00,VALID,917.575,VALID,0,VALID,97.8881,VALID,-0.0679233,VALID,21.2095,VALID,83,VALID,1.02028,
2005-04-07, 02:48:00,VALID,917.578,VALID,0,VALID,97.8067,VALID,-0.0509425,VALID,21.1899,VALID,82,VALID,0.942187,
2005-04-07, 02:49:01,VALID,917.575,VALID,0,VALID,97.8118,VALID,-0.0509425,VALID,21.1834,VALID,103,VALID,0.851199,
2005-04-07, 02:50:00,VALID,917.594,VALID,0,VALID,97.8118,VALID,-0.0339617,VALID,21.1772,VALID,82,VALID,0.858994,
2005-04-07, 02:51:00,VALID,917.583,VALID,0,VALID,97.7622,VALID,-0.0509425,VALID,21.1673,VALID,88,VALID,0.66061,
2005-04-07, 02:52:00,VALID,917.569,VALID,0,VALID,97.7711,VALID,-0.0509425,VALID,21.1705,VALID,102,VALID,0.426491,
2005-04-07, 02:53:00,VALID,917.549,VALID,0,VALID,97.7317,VALID,-0.0679233,VALID,21.1544,VALID,108,VALID,0.621354,
2005-04-07, 02:54:00,VALID,917.53,VALID,0,VALID,97.7559,VALID,-0.0509425,VALID,21.1479,VALID,127,VALID,0.717052,
2005-04-07, 02:55:00,VALID,917.522,VALID,0,VALID,97.6745,VALID,-0.0509425,VALID,21.1382,VALID,122,VALID,0.58125,
2005-04-07, 02:56:01,VALID,917.516,VALID,0,VALID,97.5855,VALID,-0.0169808,VALID,21.1121,VALID,127,VALID,0.793423,
2005-04-07, 02:57:01,VALID,917.528,VALID,0,VALID,97.5766,VALID,-0.0509425,VALID,21.1059,VALID,127,VALID,0.62872,
2005-04-07, 02:58:00,VALID,917.524,VALID,0,VALID,97.5613,VALID,-0.0679233,VALID,21.0962,VALID,123,VALID,0.937855,
2005-04-07, 02:59:00,VALID,917.514,VALID,0,VALID,97.5918,VALID,-0.0169808,VALID,21.0836,VALID,117,VALID,0.875744,
2005-04-07, 03:00:00,VALID,917.513,VALID,0,VALID,97.6363,VALID,-0.0509425,VALID,21.0739,VALID,127,VALID,0.651811,
2005-04-07, 03:01:00,VALID,917.497,VALID,0,VALID,97.7025,VALID,-0.0679233,VALID,21.061,VALID,128,VALID,0.371951,
2005-04-07, 03:02:01,VALID,917.511,VALID,0,VALID,97.7444,VALID,-0.0509425,VALID,21.0545,VALID,125,VALID,0.318182,
2005-04-07, 03:03:00,VALID,917.512,VALID,0,VALID,97.7851,VALID,-0.0849042,VALID,21.0483,VALID,126,VALID,0.520531,
2005-04-07, 03:04:01,VALID,917.522,VALID,0,VALID,97.8525,VALID,-0.0849042,VALID,21.0351,VALID,142,VALID,0.478423,
2005-04-07, 03:05:00,VALID,917.52,VALID,0,VALID,97.8996,VALID,-0.0679233,VALID,21.0354,VALID,144,VALID,0.380952,
2005-04-07, 03:06:01,VALID,917.518,VALID,0,VALID,97.9314,VALID,-0.0679233,VALID,21.0386,VALID,147,VALID,0.49721,
2005-04-07, 03:07:01,VALID,917.52,VALID,0,VALID,97.8983,VALID,-0.0849042,VALID,21.0384,VALID,132,VALID,0.357143,
2005-04-07, 03:08:00,VALID,917.516,VALID,0,VALID,97.9059,VALID,-0.0169808,VALID,21.0518,VALID,151,VALID,0.527148,
2005-04-07, 03:09:01,VALID,917.502,VALID,0,VALID,98.0305,VALID,-0.0339617,VALID,21.0548,VALID,155,VALID,1.00182,
2005-04-07, 03:10:00,VALID,917.47,VALID,0,VALID,98.1196,VALID,-0.0339617,VALID,21.0386,VALID,146,VALID,0.96503,
2005-04-07, 03:11:01,VALID,917.429,VALID,0,VALID,98.1183,VALID,-0.0679233,VALID,21.0354,VALID,145,VALID,1.04306,
2005-04-07, 03:12:01,VALID,917.41,VALID,0,VALID,97.9949,VALID,-0.0849042,VALID,21.0192,VALID,138,VALID,1.012,
2005-04-07, 03:13:01,VALID,917.393,VALID,0,VALID,97.8055,VALID,-0.0679233,VALID,21.0031,VALID,121,VALID,0.79566,
2005-04-07, 03:14:01,VALID,917.4,VALID,0,VALID,97.7152,VALID,-0.0679233,VALID,21.0095,VALID,128,VALID,0.98383,
2005-04-07, 03:15:00,VALID,917.401,VALID,0,VALID,97.6808,VALID,-0.101885,VALID,21.0001,VALID,135,VALID,0.736607,
2005-04-07, 03:16:01,VALID,917.407,VALID,0,VALID,97.6847,VALID,-0.0679233,VALID,21.0004,VALID,149,VALID,0.475347,
2005-04-07, 03:17:01,VALID,917.409,VALID,0,VALID,97.5944,VALID,-0.0679233,VALID,21.0028,VALID,145,VALID,0.407965,
2005-04-07, 03:18:01,VALID,917.401,VALID,0,VALID,97.4443,VALID,-0.0679233,VALID,21.0098,VALID,151,VALID,0.609193,
2005-04-07, 03:19:01,VALID,917.376,VALID,0,VALID,97.2739,VALID,-0.0339617,VALID,21.0063,VALID,136,VALID,0.754383,
2005-04-07, 03:20:01,VALID,917.372,VALID,0,VALID,96.942,VALID,-0.101885,VALID,20.9999,VALID,135,VALID,1.30538,
2005-04-07, 03:21:01,VALID,917.361,VALID,0,VALID,96.3355,VALID,-0.0339617,VALID,21.019,VALID,127,VALID,1.29469,
2005-04-07, 03:22:01,VALID,917.353,VALID,0,VALID,96.015,VALID,-0.0679233,VALID,21.048,VALID,109,VALID,0.767149,
2005-04-07, 03:23:01,VALID,917.366,VALID,0,VALID,95.8815,VALID,-0.0509425,VALID,21.0806,VALID,99,VALID,0.821801,
2005-04-07, 03:24:01,VALID,917.365,VALID,0,VALID,95.7989,VALID,-0.0509425,VALID,21.0836,VALID,97,VALID,0.686942,
2005-04-07, 03:25:01,VALID,917.364,VALID,0,VALID,95.7874,VALID,-0.101885,VALID,21.0911,VALID,102,VALID,0.964844,
2005-04-07, 03:26:01,VALID,917.38,VALID,0,VALID,95.8052,VALID,-0.0849042,VALID,21.0779,VALID,134,VALID,0.781613,
2005-04-07, 03:27:01,VALID,917.37,VALID,0,VALID,95.865,VALID,-0.101885,VALID,21.0677,VALID,118,VALID,0.849927,
2005-04-07, 03:28:01,VALID,917.369,VALID,0,VALID,95.9413,VALID,-0.0849042,VALID,21.0583,VALID,113,VALID,0.881811,
2005-04-07, 03:29:01,VALID,917.362,VALID,0,VALID,96.1053,VALID,-0.0509425,VALID,21.0324,VALID,105,VALID,0.874238,